Vicksburg, LA

6:48 PM CDT on September 22, 2017 (GMT -0500)
Vicksburg Tallulah Regional

Weather History for KTVR - May, 2014

Change the Weather History Date:

Friday, May 9, 2014

  Actual Average Record
Temperature  
Mean Temperature 70 °F 71 °F  
Max Temperature 76 °F 82 °F 91 °F (1955)
Min Temperature 63 °F 60 °F 46 °F (1983)
Degree Days  
Heating Degree Days 0 1  
Month to date heating degree days 11 9  
Since 1 July heating degree days 2876 2350  
Cooling Degree Days 5 7  
Month to date cooling degree days 44 51  
Year to date cooling degree days 164 169  
Growing Degree Days 20 (Base 50)    
Moisture  
Dew Point 64 °F    
Average Humidity 84    
Maximum Humidity 93    
Minimum Humidity 74    
Precipitation  
Precipitation 1.49 in 0.17 in 2.73 in (1978)
Month to date precipitation 1.49 1.59  
Year to date precipitation 25.89 21.93  
Sea Level Pressure  
Sea Level Pressure 30.02 in    
Wind  
Wind Speed 6 mph (SSE)    
Max Wind Speed 21 mph    
Max Gust Speed 31 mph    
Visibility 8 miles    
Events Rain    
T = Trace of Precipitation, MM = Missing Value Source: NWS Daily Summary

Daily Weather History Graph

Daily Weather History Graph

Search for Another Location

Airport or City:

Trip Planner

Search our weather history database for the weather conditions in past years. The results will help you decide how hot, cold, wet, or windy it might be!

Date:

Astronomy

May. 09, 2014 Rise Set
Actual Time 6:10 AM CDT 7:51 PM CDT
Civil Twilight 5:43 AM CDT 8:17 PM CDT
Nautical Twilight 5:11 AM CDT 8:49 PM CDT
Astronomical Twilight 4:38 AM CDT 9:23 PM CDT
Moon 3:05 PM CDT (5/9) 2:54 AM CDT (5/9)
Length of Visible Light 14h 33m
Length of Day
13h 40m
Waxing Gibbous, 74% of the Moon is Illuminated
May 9
Waxing Gibbous
May 14
Full
May 21
Last Quarter
May 28
New
Jun 5
First Quarter

Hourly Weather History & Observations

Time (CDT) Temp. Dew Point Humidity Pressure Visibility Wind Dir Wind Speed Gust Speed Precip Events Conditions
12:53 AM 75.0 °F 66.9 °F 76% 29.99 in 10.0 mi South 10.4 mph - N/A   Mostly Cloudy
1:46 AM 75.0 °F 68.0 °F 79% 29.98 in 10.0 mi SSW 6.9 mph - N/A   Overcast
1:53 AM 75.0 °F 68.0 °F 79% 30.01 in 10.0 mi Variable 4.6 mph - N/A   Overcast
2:30 AM 64.0 °F 62.1 °F 93% 30.04 in 4.0 mi WNW 15.0 mph 26.5 mph 0.08 in Rain Rain
2:34 AM 64.0 °F 62.1 °F 93% 30.04 in 1.8 mi WNW 11.5 mph 26.5 mph 0.16 in Rain Heavy Rain
2:51 AM 64.4 °F 62.6 °F 94% 30.04 in 3.0 mi WNW 5.8 mph - 0.25 in Rain Heavy Rain
2:53 AM 64.0 °F 62.1 °F 93% 30.06 in 4.0 mi WNW 6.9 mph - 0.25 in Rain Rain
4:53 AM 64.0 °F 62.1 °F 93% 30.05 in 7.0 mi ESE 3.5 mph - 0.12 in Rain Rain
7:36 AM 64.0 °F 62.1 °F 93% 30.06 in 2.0 mi East 4.6 mph - 0.32 in Rain Heavy Rain
8:28 AM 64.0 °F 62.1 °F 93% 30.07 in 1.2 mi SE 9.2 mph - 0.68 in Rain Heavy Rain
8:53 AM 64.0 °F 62.1 °F 93% 30.07 in 6.0 mi SE 11.5 mph - 0.70 in Rain Light Rain
11:53 AM 66.0 °F 64.0 °F 93% 30.12 in 6.0 mi East 6.9 mph - 0.10 in Rain Light Rain
1:24 PM 68.0 °F 66.0 °F 93% 30.03 in 10.0 mi SE 15.0 mph - 0.08 in   Partly Cloudy
1:53 PM 69.1 °F 64.9 °F 87% 30.04 in 10.0 mi SE 12.7 mph - 0.08 in   Unknown
2:53 PM 69.1 °F 64.9 °F 87% 30.04 in 10.0 mi SSE 12.7 mph 21.9 mph N/A   Mostly Cloudy
3:53 PM 69.1 °F 64.9 °F 87% 29.99 in 10.0 mi SE 15.0 mph - N/A   Mostly Cloudy
4:53 PM 69.1 °F 64.9 °F 87% 29.99 in 10.0 mi SSE 10.4 mph - N/A   Partly Cloudy
5:53 PM 69.1 °F 64.9 °F 87% 30.00 in 10.0 mi SSE 6.9 mph - N/A   Clear
6:53 PM 68.0 °F 64.9 °F 90% 29.97 in 10.0 mi SE 5.8 mph - N/A   Clear
7:53 PM 66.9 °F 64.9 °F 93% 29.99 in 10.0 mi SSE 8.1 mph - N/A   Clear
8:53 PM 66.9 °F 64.9 °F 93% 29.99 in 10.0 mi SE 5.8 mph - N/A   Clear
9:53 PM 66.9 °F 64.9 °F 93% 30.00 in 10.0 mi SE 6.9 mph - N/A   Clear
10:53 PM 66.9 °F 64.0 °F 90% 30.01 in 10.0 mi SSE 5.8 mph - N/A   Clear
11:53 PM 66.9 °F 64.0 °F 90% 30.01 in 10.0 mi South 8.1 mph - N/A   Clear